Regional Weather Roundup
Issued by NWS

Home | Current Version | Previous Version | Graphics & Text | Print | Product List | Glossary On
Versions: 1 2 3 4 5 6 7 8 9 10 11 12 13 14 15 16 17 18 19 20 21 22 23 24 25 26 27 28 29 30 31 32 33 34 35 36 37 38 39 40 41 42 43 44 45 46 47 48 49 50
000
ASUS45 KTFX 311004
RWRMT
MONTANA HOURLY WEATHER ROUNDUP
NATIONAL WEATHER SERVICE GREAT FALLS MT
404 AM MDT THU JUL 31 2014

NOTE: "FAIR" INDICATES FEW OR NO CLOUDS BELOW 12000 FEET WITH NO
SIGNIFICANT WEATHER AND/OR OBSTRUCTIONS TO VISIBILITY.

* THESE STATIONS ARE NOT UNDER NWS QUALITY CONTROL. THEY DO NOT
   REPORT WEATHER SUCH AS PRECIPITATION OR FOG.

MTZ001>007-043-311100-
WEST OF THE DIVIDE
CITY           SKY/WX    TMP DP  RH WIND       PRES   REMARKS
KALISPELL      CLEAR     55  48  77 W7        30.11S
MISSOULA       CLEAR     64  46  52 SE5       30.16S
BUTTE          PTCLDY    48  43  83 CALM      30.30F
MULLAN PASS    CLEAR     70  36  29 W3        30.30F
* ESSEX        N/A       55  46  72 SE2G9      N/A
* LINCOLN      N/A       49  48  96 NW2        N/A
* LOOKOUT PASS N/A       61  42  50 S1         N/A
* POLSON       N/A       64  44  48 NE2        N/A
* RONAN APT    CLEAR     57  52  83 N/A        N/A
* SEELEY LAKE  N/A       49  42  77 NW1        N/A
* THOMP F APT  CLEAR     51  41  69 NE4        N/A
* YAAK HILL    N/A       63  48  58 N/A        N/A
$$

MTZ008-052>055-311100-
SOUTHWEST MONTANA
CITY           SKY/WX    TMP DP  RH WIND       PRES   REMARKS
BOZEMAN        CLEAR     57  43  60 S9        30.23F
DILLON         PTCLDY    55  43  64 S8        30.29R
W YELLOWSTONE  CLEAR     43  39  86 CALM      30.39S
* THREE FORKS  CLEAR     55  55 100 N/A        N/A
* BOULDER HILL N/A       59  38  46 SW11       N/A
* MONIDA PASS  N/A       48  45  89 W2         N/A
* RAYNOLDS PAS N/A       47  32  56 S8         N/A
* WHITEHALL    N/A       62  45  54 NW7G13     N/A
* WISE RIVER   N/A       50  44  80 W4         N/A
$$

MTZ009>010-012-014-046-048-049-054-311100-
EAST SLOPES AND CENTRAL MONTANA
CITY           SKY/WX    TMP DP  RH WIND       PRES   REMARKS
CUT BANK       CLEAR     55  43  64 W7        30.13S
GREAT FALLS    CLEAR     57  45  64 SW10      30.13R
HELENA         PTCLDY    64  45  50 CALM      30.18S
MALMSTROM AFB  CLEAR     61  45  56 SW9       30.13S
* CONRAD       CLEAR     52  48  86 NE5        N/A
* DEARBORN     N/A       57  50  78 SW2        N/A
* EAST GLACIER N/A       62  40  45 NW5        N/A
* MONARCH      N/A       57  38  49 S7         N/A
* PENDROY      N/A       61  47  60 VRB3       N/A
* ROGERS PASS  N/A       61  40  46 NW3        N/A
* SAINT MARY   N/A       49  43  80 S2G8       N/A
* SWEET GRASS  N/A       65  39  39 W10        N/A
$$

MTZ011-013-016-021-035-040-045-047-050-051-311100-
NORTH CENTRAL MONTANA
CITY           SKY/WX    TMP DP  RH WIND       PRES   REMARKS
HAVRE          CLEAR     59  43  56 W6        30.02S
LEWISTOWN      PTCLDY    59  39  48 S7        30.16S
* CHESTER      N/A       60  42  52 N1         N/A
* DENTON       N/A       58  42  55 S3         N/A
* GEYSER       N/A       61  45  56 W4         N/A
* JUDITH GAP   N/A       60  40  48 N/A        N/A
* LOMA         N/A       70  44  39 SW5        N/A
$$

MTZ017>020-022>027-061-062-311100-
NORTHEAST MONTANA
CITY           SKY/WX    TMP DP  RH WIND       PRES   REMARKS
GLASGOW        PTCLDY    66  48  52 E21       30.07S
GLENDIVE       PTCLDY    64  52  65 E7        30.16S
JORDAN         CLEAR     64  41  43 W3        30.06S
SIDNEY         MOCLDY    64  52  65 SW8       30.13F
WOLF POINT     MOCLDY    68  52  57 E6        30.10F
* BEAVER HILL  N/A       61  51  70 E16        N/A
* CIRCLE       N/A       70  52  53 NE4G10     N/A
* LINDSAY DVD  N/A       62  49  63 E12G17     N/A
$$

MTZ028>042-056>058-311100-
SOUTHCENTRAL AND SOUTHEAST MONTANA
CITY           SKY/WX    TMP DP  RH WIND       PRES   REMARKS
BAKER          CLEAR     59  48  67 NE13      30.17R
BILLINGS       PTCLDY    66  39  37 SW6       30.14S
LIVINGSTON     CLEAR     57  37  47 NW13      30.21F
MILES CITY     PTCLDY    64  46  52 S8        30.09F
* LAUREL APT   MOCLDY    63  37  38 N/A        N/A
* ROUNDUP APT  CLEAR     61  34  36 N/A        N/A
* ALZADA       N/A       53  47  80 E2         N/A
* HYSHAM       N/A       75  38  26 S7G15      N/A
* LAME DEER    N/A       66  39  37 S8         N/A
* REED POINT   N/A       54  44  69 SW1        N/A
* ROSCOE HILL  N/A       65  32  29 SE7        N/A
$$

REGIONAL REPORTS...DAKOTAS
CITY           SKY/WX    TMP DP  RH WIND       PRES   REMARKS
WILLISTON      CLOUDY    64  57  78 N6        30.11R
DICKINSON      MOCLDY    57  54  90 NW5       30.13F
CROSBY         TSTM      61  61 100 S6        30.09S
WATFORD CITY   CLEAR     61  57  87 SE6       30.06F
BISMARCK       PTCLDY    55  54  96 SE3       30.11F
GRAND FORKS    PTCLDY    59  55  87 W6        30.03R
FARGO          PTCLDY    55  54  96 SW3       30.04S
BUFFALO SD     CLEAR     57  50  78 N5        30.09R
RAPID CITY     CLEAR     57  48  72 NW10      30.16S
$$

REGIONAL REPORTS...WYOMING/IDAHO/WASHINGTON
CITY           SKY/WX    TMP DP  RH WIND       PRES   REMARKS
GILLETTE       PTCLDY    55  45  69 S10       30.22S
SHERIDAN       PTCLDY    52  43  72 CALM      30.19S
YELLOWSTONE LA CLEAR     43  39  86 NW3       30.47F
SALMON         PTCLDY    55  46  72 S3        30.24S
MULLAN PASS    CLEAR     70  36  29 W3        30.30S
SAND POINT     CLEAR     55  52  90 CALM      30.05S
SPOKANE        CLEAR     72  36  27 SE6       30.04S

$$




USA.gov is the U.S. government's official web portal to all federal, state and local government web resources and services.